24-08-2022, 00:00:03,    178,    0.0,   17.6,   0.00,   0.00, 1012.0,   84.1, -999.0
24-08-2022, 00:00:12,    178,    0.0,   17.7,   0.00,   0.00, 1012.0,   83.9, -999.0
24-08-2022, 00:00:23,    176,    0.0,   17.6,   0.00,   0.00, 1012.0,   83.9, -999.0
24-08-2022, 00:00:33,    177,    0.0,   17.7,   0.00,   0.00, 1012.0,   84.0, -999.0
24-08-2022, 00:00:42,    177,    0.0,   17.7,   0.00,   0.00, 1012.0,   83.9, -999.0
24-08-2022, 00:00:52,    176,    0.0,   17.7,   0.00,   0.00, 1012.0,   83.8, -999.0
24-08-2022, 00:01:03,    176,    0.6,   17.7,   0.00,   0.00, 1012.1,   83.9, -999.0
24-08-2022, 00:01:12,    176,    0.1,   17.7,   0.00,   0.00, 1012.1,   83.8, -999.0
24-08-2022, 00:01:22,    175,    0.0,   17.6,   0.00,   0.00, 1012.1,   83.7, -999.0
24-08-2022, 00:01:32,    175,    0.0,   17.6,   0.00,   0.00, 1012.0,   83.6, -999.0
24-08-2022, 00:01:42,    175,    0.0,   17.6,   0.00,   0.00, 1012.1,   83.6, -999.0
24-08-2022, 00:01:52,    175,    0.0,   17.6,   0.00,   0.00, 1012.0,   83.6, -999.0
24-08-2022, 00:02:02,    165,    0.0,   17.6,   0.00,   0.00, 1012.1,   83.7, -999.0
24-08-2022, 00:02:12,    165,    0.3,   17.7,   0.00,   0.00, 1012.1,   84.0, -999.0
24-08-2022, 00:02:22,    165,    0.3,   17.6,   0.00,   0.00, 1012.1,   83.9, -999.0
24-08-2022, 00:02:32,    165,    0.1,   17.7,   0.00,   0.00, 1012.1,   83.8, -999.0
24-08-2022, 00:02:42,    165,    0.2,   17.6,   0.00,   0.00, 1012.1,   83.9, -999.0
24-08-2022, 00:02:52,    165,    0.1,   17.5,   0.00,   0.00, 1012.1,   83.8, -999.0
24-08-2022, 00:03:02,    165,    0.0,   17.6,   0.00,   0.00, 1012.0,   83.6, -999.0
24-08-2022, 00:03:12,    172,    0.0,   17.5,   0.00,   0.00, 1012.0,   83.7, -999.0
24-08-2022, 00:03:21,    171,    0.0,   17.5,   0.00,   0.00, 1012.0,   83.7, -999.0
24-08-2022, 00:03:32,    171,    0.0,   17.5,   0.00,   0.00, 1012.0,   83.8, -999.0
24-08-2022, 00:03:42,    172,    0.0,   17.6,   0.00,   0.00, 1012.0,   83.7, -999.0
24-08-2022, 00:03:51,    172,    0.0,   17.6,   0.00,   0.00, 1012.1,   83.8, -999.0
24-08-2022, 00:04:02,    171,    0.0,   17.6,   0.00,   0.00, 1012.0,   83.9, -999.0
24-08-2022, 00:04:11,    172,    0.0,   17.6,   0.00,   0.00, 1012.0,   83.9, -999.0
24-08-2022, 00:04:21,    171,    0.0,   17.6,   0.00,   0.00, 1012.0,   84.0, -999.0
24-08-2022, 00:04:31,    172,    0.0,   17.6,   0.00,   0.00, 1012.0,   83.8, -999.0
24-08-2022, 00:04:41,    172,    0.0,   17.6,   0.00,   0.00, 1012.1,   83.9, -999.0
24-08-2022, 00:04:51,    172,    0.0,   17.6,   0.00,   0.00, 1012.1,   83.9, -999.0
24-08-2022, 00:05:01,    172,    0.0,   17.5,   0.00,   0.00, 1012.1,   83.7, -999.0
24-08-2022, 00:05:11,    172,    0.0,   17.6,   0.00,   0.00, 1012.1,   83.8, -999.0
24-08-2022, 00:05:21,    172,    0.0,   17.6,   0.00,   0.00, 1012.0,   83.8, -999.0
24-08-2022, 00:05:31,    172,    0.0,   17.5,   0.00,   0.00, 1012.0,   83.8, -999.0
24-08-2022, 00:05:41,    172,    0.0,   17.5,   0.00,   0.00, 1012.0,   83.7, -999.0
24-08-2022, 00:05:51,    172,    0.0,   17.5,   0.00,   0.00, 1012.0,   83.8, -999.0
24-08-2022, 00:06:01,    172,    0.0,   17.5,   0.00,   0.00, 1012.0,   83.8, -999.0
24-08-2022, 00:06:11,    172,    0.0,   17.5,   0.00,   0.00, 1012.0,   83.8, -999.0
24-08-2022, 00:06:21,    172,    0.0,   17.5,   0.00,   0.00, 1012.0,   83.8, -999.0
24-08-2022, 00:06:31,    172,    0.0,   17.4,   0.00,   0.00, 1012.0,   83.8, -999.0
24-08-2022, 00:06:41,    172,    0.0,   17.5,   0.00,   0.00, 1012.0,   83.8, -999.0
24-08-2022, 00:06:50,    172,    0.0,   17.5,   0.00,   0.00, 1012.0,   83.8, -999.0
24-08-2022, 00:07:00,    172,    0.0,   17.5,   0.00,   0.00, 1012.0,   83.8, -999.0
24-08-2022, 00:07:11,    172,    0.0,   17.5,   0.00,   0.00, 1012.0,   83.9, -999.0
24-08-2022, 00:07:20,    172,    0.0,   17.5,   0.00,   0.00, 1012.0,   83.8, -999.0
24-08-2022, 00:07:30,    172,    0.0,   17.5,   0.00,   0.00, 1012.0,   83.9, -999.0
24-08-2022, 00:07:40,    172,    0.0,   17.5,   0.00,   0.00, 1012.0,   83.9, -999.0
24-08-2022, 00:07:50,    172,    0.0,   17.5,   0.00,   0.00, 1012.1,   83.9, -999.0
24-08-2022, 00:08:00,    172,    0.0,   17.5,   0.00,   0.00, 1012.0,   83.9, -999.0
24-08-2022, 00:08:10,    172,    0.0,   17.5,   0.00,   0.00, 1012.1,   83.9, -999.0
24-08-2022, 00:08:20,    172,    0.0,   17.5,   0.00,   0.00, 1012.0,   84.1, -999.0
24-08-2022, 00:08:30,    172,    0.0,   17.5,   0.00,   0.00, 1012.0,   84.0, -999.0
24-08-2022, 00:08:40,    172,    0.0,   17.4,   0.00,   0.00, 1012.0,   83.8, -999.0
24-08-2022, 00:08:50,    172,    0.0,   17.5,   0.00,   0.00, 1012.0,   83.8, -999.0
24-08-2022, 00:09:00,    172,    0.0,   17.6,   0.00,   0.00, 1012.0,   83.7, -999.0
24-08-2022, 00:09:10,    172,    0.0,   17.6,   0.00,   0.00, 1012.0,   83.7, -999.0
24-08-2022, 00:09:20,    172,    0.0,   17.5,   0.00,   0.00, 1012.1,   83.7, -999.0
24-08-2022, 00:09:29,    172,    0.0,   17.6,   0.00,   0.00, 1012.0,   83.6, -999.0
24-08-2022, 00:09:40,    172,    0.0,   17.6,   0.00,   0.00, 1012.0,   83.5, -999.0
24-08-2022, 00:09:50,    172,    0.0,   17.6,   0.00,   0.00, 1012.1,   83.7, -999.0
24-08-2022, 00:09:59,    174,    0.5,   17.7,   0.00,   0.00, 1012.2,   84.0, -999.0
24-08-2022, 00:10:10,    204,    1.2,   17.7,   0.00,   0.00, 1012.2,   84.1, -999.0
24-08-2022, 00:10:19,    205,    0.0,   17.6,   0.00,   0.00, 1012.1,   83.6, -999.0
24-08-2022, 00:10:29,    204,    0.0,   17.5,   0.00,   0.00, 1012.2,   83.5, -999.0
24-08-2022, 00:10:39,    204,    0.0,   17.6,   0.00,   0.00, 1012.2,   83.5, -999.0
24-08-2022, 00:10:49,    223,    1.1,   17.7,   0.00,   0.00, 1012.3,   83.9, -999.0
24-08-2022, 00:10:59,    224,    0.9,   17.6,   0.00,   0.00, 1012.3,   83.7, -999.0
24-08-2022, 00:11:09,    216,    1.3,   17.6,   0.00,   0.00, 1012.3,   83.5, -999.0
24-08-2022, 00:11:19,    214,    0.8,   17.6,   0.00,   0.00, 1012.3,   83.8, -999.0
24-08-2022, 00:11:29,    214,    0.6,   17.6,   0.00,   0.00, 1012.3,   83.7, -999.0
24-08-2022, 00:11:39,    214,    0.0,   17.5,   0.00,   0.00, 1012.2,   83.3, -999.0
24-08-2022, 00:11:49,    176,    0.5,   17.5,   0.00,   0.00, 1012.3,   83.5, -999.0
24-08-2022, 00:11:59,    226,    1.5,   17.6,   0.00,   0.00, 1012.3,   83.8, -999.0
24-08-2022, 00:12:09,    199,    2.1,   17.5,   0.00,   0.00, 1012.3,   83.7, -999.0
24-08-2022, 00:12:19,    210,    1.8,   17.5,   0.00,   0.00, 1012.3,   83.7, -999.0
24-08-2022, 00:12:28,    219,    2.1,   17.5,   0.00,   0.00, 1012.3,   83.7, -999.0
24-08-2022, 00:12:39,    210,    1.6,   17.5,   0.00,   0.00, 1012.4,   83.9, -999.0
24-08-2022, 00:12:49,    207,    1.0,   17.5,   0.00,   0.00, 1012.3,   84.0, -999.0
24-08-2022, 00:12:58,    207,    0.1,   17.4,   0.00,   0.00, 1012.2,   83.7, -999.0
24-08-2022, 00:13:08,    207,    0.0,   17.4,   0.00,   0.00, 1012.2,   83.6, -999.0
24-08-2022, 00:13:19,    207,    0.0,   17.3,   0.00,   0.00, 1012.2,   83.7, -999.0
24-08-2022, 00:13:28,    207,    0.0,   17.3,   0.00,   0.00, 1012.2,   83.8, -999.0
24-08-2022, 00:13:38,    207,    0.0,   17.4,   0.00,   0.00, 1012.2,   83.7, -999.0
24-08-2022, 00:13:48,    207,    0.0,   17.3,   0.00,   0.00, 1012.2,   83.9, -999.0
24-08-2022, 00:13:58,    207,    0.0,   17.3,   0.00,   0.00, 1012.2,   83.8, -999.0
24-08-2022, 00:14:08,    208,    0.0,   17.4,   0.00,   0.00, 1012.2,   83.9, -999.0
24-08-2022, 00:14:18,    207,    0.0,   17.4,   0.00,   0.00, 1012.2,   84.0, -999.0
24-08-2022, 00:14:28,    207,    0.0,   17.4,   0.00,   0.00, 1012.2,   84.0, -999.0
24-08-2022, 00:14:38,    207,    0.0,   17.5,   0.00,   0.00, 1012.3,   83.9, -999.0
24-08-2022, 00:14:48,    207,    0.0,   17.4,   0.00,   0.00, 1012.3,   84.0, -999.0
24-08-2022, 00:14:58,    207,    0.0,   17.4,   0.00,   0.00, 1012.3,   84.0, -999.0
24-08-2022, 00:15:08,    207,    0.0,   17.4,   0.00,   0.00, 1012.2,   84.0, -999.0
24-08-2022, 00:15:18,    207,    0.0,   17.4,   0.00,   0.00, 1012.2,   83.9, -999.0
24-08-2022, 00:15:28,    207,    0.0,   17.3,   0.00,   0.00, 1012.3,   84.0, -999.0
24-08-2022, 00:15:37,    207,    0.0,   17.4,   0.00,   0.00, 1012.3,   83.8, -999.0
24-08-2022, 00:15:48,    207,    0.0,   17.4,   0.00,   0.00, 1012.2,   83.9, -999.0
24-08-2022, 00:15:58,    207,    0.0,   17.4,   0.00,   0.00, 1012.3,   83.9, -999.0
24-08-2022, 00:16:07,    207,    0.0,   17.3,   0.00,   0.00, 1012.3,   83.9, -999.0
24-08-2022, 00:16:17,    207,    0.0,   17.4,   0.00,   0.00, 1012.3,   83.8, -999.0
24-08-2022, 00:16:27,    209,    0.0,   17.4,   0.00,   0.00, 1012.3,   83.9, -999.0
24-08-2022, 00:16:37,    209,    0.0,   17.4,   0.00,   0.00, 1012.3,   83.9, -999.0
24-08-2022, 00:16:47,    209,    0.0,   17.4,   0.00,   0.00, 1012.3,   84.0, -999.0
24-08-2022, 00:16:57,    209,    0.0,   17.4,   0.00,   0.00, 1012.3,   84.0, -999.0
24-08-2022, 00:17:07,    209,    0.0,   17.4,   0.00,   0.00, 1012.2,   84.0, -999.0
24-08-2022, 00:17:17,    209,    0.0,   17.3,   0.00,   0.00, 1012.3,   84.0, -999.0
24-08-2022, 00:17:27,    209,    0.0,   17.4,   0.00,   0.00, 1012.3,   84.1, -999.0
24-08-2022, 00:17:37,    209,    0.0,   17.4,   0.00,   0.00, 1012.3,   84.0, -999.0
24-08-2022, 00:17:47,    209,    0.0,   17.3,   0.00,   0.00, 1012.2,   84.0, -999.0
24-08-2022, 00:17:57,    209,    0.0,   17.4,   0.00,   0.00, 1012.2,   83.9, -999.0
24-08-2022, 00:18:07,    209,    0.0,   17.3,   0.00,   0.00, 1012.3,   83.9, -999.0
24-08-2022, 00:18:17,    211,    0.0,   17.3,   0.00,   0.00, 1012.4,   84.0, -999.0
24-08-2022, 00:18:27,    211,    0.0,   17.4,   0.00,   0.00, 1012.4,   84.0, -999.0
24-08-2022, 00:18:37,    211,    0.0,   17.4,   0.00,   0.00, 1012.3,   84.1, -999.0
24-08-2022, 00:18:47,    208,    0.0,   17.4,   0.00,   0.00, 1012.3,   84.1, -999.0
24-08-2022, 00:18:57,    208,    0.0,   17.4,   0.00,   0.00, 1012.3,   84.1, -999.0
24-08-2022, 00:19:06,    208,    0.0,   17.3,   0.00,   0.00, 1012.3,   84.0, -999.0
24-08-2022, 00:19:16,    207,    0.0,   17.3,   0.00,   0.00, 1012.3,   83.9, -999.0
24-08-2022, 00:19:27,    211,    0.0,   17.3,   0.00,   0.00, 1012.3,   83.9, -999.0
24-08-2022, 00:19:36,    211,    0.0,   17.3,   0.00,   0.00, 1012.3,   83.9, -999.0
24-08-2022, 00:19:46,    211,    0.0,   17.3,   0.00,   0.00, 1012.4,   84.0, -999.0
24-08-2022, 00:19:56,    210,    0.0,   17.3,   0.00,   0.00, 1012.3,   84.0, -999.0
24-08-2022, 00:20:06,    207,    0.0,   17.3,   0.00,   0.00, 1012.3,   84.2, -999.0
24-08-2022, 00:20:16,    207,    0.0,   17.3,   0.00,   0.00, 1012.3,   84.2, -999.0
24-08-2022, 00:20:26,    207,    0.0,   17.3,   0.00,   0.00, 1012.3,   84.2, -999.0
24-08-2022, 00:20:36,    207,    0.0,   17.3,   0.00,   0.00, 1012.3,   84.3, -999.0
24-08-2022, 00:20:46,    207,    0.0,   17.3,   0.00,   0.00, 1012.3,   84.1, -999.0
24-08-2022, 00:20:56,    207,    0.0,   17.3,   0.00,   0.00, 1012.3,   84.1, -999.0
24-08-2022, 00:21:06,    207,    0.0,   17.3,   0.00,   0.00, 1012.3,   84.2, -999.0
24-08-2022, 00:21:16,    207,    0.0,   17.3,   0.00,   0.00, 1012.3,   84.2, -999.0
24-08-2022, 00:21:26,    207,    0.0,   17.3,   0.00,   0.00, 1012.3,   84.3, -999.0
24-08-2022, 00:21:36,    207,    0.0,   17.4,   0.00,   0.00, 1012.3,   84.4, -999.0
24-08-2022, 00:21:45,    207,    0.0,   17.4,   0.00,   0.00, 1012.3,   84.4, -999.0
24-08-2022, 00:21:56,    207,    0.0,   17.4,   0.00,   0.00, 1012.3,   84.4, -999.0
24-08-2022, 00:22:06,    207,    0.0,   17.3,   0.00,   0.00, 1012.3,   84.3, -999.0
24-08-2022, 00:22:15,    207,    0.0,   17.4,   0.00,   0.00, 1012.3,   84.4, -999.0
24-08-2022, 00:22:25,    207,    0.0,   17.4,   0.00,   0.00, 1012.3,   84.4, -999.0
24-08-2022, 00:22:36,    207,    0.0,   17.4,   0.00,   0.00, 1012.3,   84.3, -999.0
24-08-2022, 00:22:45,    207,    0.0,   17.4,   0.00,   0.00, 1012.3,   84.3, -999.0
24-08-2022, 00:22:55,    207,    0.0,   17.4,   0.00,   0.00, 1012.3,   84.3, -999.0
24-08-2022, 00:23:05,    207,    0.0,   17.3,   0.00,   0.00, 1012.3,   84.2, -999.0
24-08-2022, 00:23:15,    210,    0.0,   17.2,   0.00,   0.00, 1012.3,   84.0, -999.0
24-08-2022, 00:23:25,    211,    0.0,   17.4,   0.00,   0.00, 1012.3,   84.1, -999.0
24-08-2022, 00:23:35,    203,    0.0,   17.3,   0.00,   0.00, 1012.3,   84.2, -999.0
24-08-2022, 00:23:45,    198,    0.0,   17.3,   0.00,   0.00, 1012.3,   84.1, -999.0
24-08-2022, 00:23:55,    198,    0.0,   17.3,   0.00,   0.00, 1012.3,   84.0, -999.0
24-08-2022, 00:24:05,    198,    0.0,   17.3,   0.00,   0.00, 1012.3,   84.0, -999.0
24-08-2022, 00:24:15,    198,    0.0,   17.3,   0.00,   0.00, 1012.3,   84.0, -999.0
24-08-2022, 00:24:25,    198,    0.0,   17.3,   0.00,   0.00, 1012.3,   84.0, -999.0
24-08-2022, 00:24:35,    198,    0.0,   17.3,   0.00,   0.00, 1012.3,   84.1, -999.0
24-08-2022, 00:24:45,    198,    0.0,   17.2,   0.00,   0.00, 1012.3,   84.1, -999.0
24-08-2022, 00:24:54,    199,    0.0,   17.2,   0.00,   0.00, 1012.3,   84.0, -999.0
24-08-2022, 00:25:05,    198,    0.0,   17.2,   0.00,   0.00, 1012.3,   83.9, -999.0
24-08-2022, 00:25:15,    198,    0.0,   17.3,   0.00,   0.00, 1012.3,   84.0, -999.0
24-08-2022, 00:25:24,    198,    0.0,   17.2,   0.00,   0.00, 1012.3,   84.0, -999.0
24-08-2022, 00:25:34,    198,    0.0,   17.2,   0.00,   0.00, 1012.3,   84.1, -999.0
24-08-2022, 00:25:44,    198,    0.0,   17.2,   0.00,   0.00, 1012.3,   84.1, -999.0
24-08-2022, 00:25:54,    198,    0.0,   17.2,   0.00,   0.00, 1012.3,   84.0, -999.0
24-08-2022, 00:26:04,    198,    0.0,   17.2,   0.00,   0.00, 1012.3,   84.3, -999.0
24-08-2022, 00:26:14,    199,    0.0,   17.2,   0.00,   0.00, 1012.3,   84.2, -999.0
24-08-2022, 00:26:24,    198,    0.0,   17.2,   0.00,   0.00, 1012.2,   84.2, -999.0
24-08-2022, 00:26:34,    198,    0.0,   17.2,   0.00,   0.00, 1012.3,   84.2, -999.0
24-08-2022, 00:26:44,    208,    0.0,   17.2,   0.00,   0.00, 1012.3,   84.2, -999.0
24-08-2022, 00:26:54,    212,    0.6,   17.2,   0.00,   0.00, 1012.4,   84.5, -999.0
24-08-2022, 00:27:04,    204,    0.8,   17.3,   0.00,   0.00, 1012.4,   84.6, -999.0
24-08-2022, 00:27:14,    176,    1.8,   17.3,   0.00,   0.00, 1012.4,   84.5, -999.0
24-08-2022, 00:27:24,    192,    1.9,   17.3,   0.00,   0.00, 1012.4,   84.5, -999.0
24-08-2022, 00:27:34,    203,    1.7,   17.2,   0.00,   0.00, 1012.4,   84.6, -999.0
24-08-2022, 00:27:44,    219,    1.7,   17.3,   0.00,   0.00, 1012.4,   84.5, -999.0
24-08-2022, 00:27:53,    237,    0.6,   17.2,   0.00,   0.00, 1012.4,   84.4, -999.0
24-08-2022, 00:28:03,    231,    0.1,   17.2,   0.00,   0.00, 1012.3,   84.4, -999.0
24-08-2022, 00:28:14,    225,    0.0,   17.2,   0.00,   0.00, 1012.3,   84.2, -999.0
24-08-2022, 00:28:23,    221,    0.0,   17.2,   0.00,   0.00, 1012.3,   84.5, -999.0
24-08-2022, 00:28:33,    232,    0.1,   17.2,   0.00,   0.00, 1012.3,   84.6, -999.0
24-08-2022, 00:28:44,    233,    0.0,   17.3,   0.00,   0.00, 1012.3,   84.5, -999.0
24-08-2022, 00:28:53,    236,    0.0,   17.2,   0.00,   0.00, 1012.3,   84.3, -999.0
24-08-2022, 00:29:03,    224,    0.0,   17.1,   0.00,   0.00, 1012.3,   84.3, -999.0
24-08-2022, 00:29:13,    224,    0.0,   17.2,   0.00,   0.00, 1012.3,   84.3, -999.0
24-08-2022, 00:29:23,    222,    0.0,   17.2,   0.00,   0.00, 1012.3,   84.3, -999.0
24-08-2022, 00:29:33,    221,    0.0,   17.2,   0.00,   0.00, 1012.2,   84.2, -999.0
24-08-2022, 00:29:43,    220,    0.0,   17.3,   0.00,   0.00, 1012.2,   84.1, -999.0
24-08-2022, 00:29:53,    220,    0.0,   17.2,   0.00,   0.00, 1012.3,   84.3, -999.0
24-08-2022, 00:30:03,    220,    0.0,   17.2,   0.00,   0.00, 1012.3,   84.3, -999.0
24-08-2022, 00:30:13,    194,    0.0,   17.2,   0.00,   0.00, 1012.3,   84.2, -999.0
24-08-2022, 00:30:23,    193,    0.0,   17.2,   0.00,   0.00, 1012.3,   84.4, -999.0
24-08-2022, 00:30:33,    193,    0.0,   17.2,   0.00,   0.00, 1012.3,   84.2, -999.0
24-08-2022, 00:30:43,    195,    0.1,   17.2,   0.00,   0.00, 1012.4,   84.4, -999.0
24-08-2022, 00:30:53,    195,    0.0,   17.2,   0.00,   0.00, 1012.2,   84.1, -999.0
24-08-2022, 00:31:02,    201,    0.1,   17.2,   0.00,   0.00, 1012.3,   84.4, -999.0
24-08-2022, 00:31:13,    206,    0.6,   17.3,   0.00,   0.00, 1012.4,   84.5, -999.0
24-08-2022, 00:31:23,    205,    0.7,   17.3,   0.00,   0.00, 1012.4,   84.4, -999.0
24-08-2022, 00:31:32,    205,    0.0,   17.2,   0.00,   0.00, 1012.3,   84.2, -999.0
24-08-2022, 00:31:42,    209,    0.6,   17.2,   0.00,   0.00, 1012.4,   84.6, -999.0
24-08-2022, 00:31:52,    225,    1.3,   17.2,   0.00,   0.00, 1012.4,   84.7, -999.0
24-08-2022, 00:32:02,    218,    0.9,   17.3,   0.00,   0.00, 1012.4,   84.6, -999.0
24-08-2022, 00:32:12,    218,    1.3,   17.3,   0.00,   0.00, 1012.5,   84.5, -999.0
24-08-2022, 00:32:22,    216,    1.3,   17.3,   0.00,   0.00, 1012.4,   84.4, -999.0
24-08-2022, 00:32:32,    217,    0.2,   17.3,   0.00,   0.00, 1012.4,   84.3, -999.0
24-08-2022, 00:32:42,    216,    0.0,   17.2,   0.00,   0.00, 1012.3,   84.1, -999.0
24-08-2022, 00:32:52,    214,    0.0,   17.2,   0.00,   0.00, 1012.3,   84.3, -999.0
24-08-2022, 00:33:02,    214,    0.6,   17.2,   0.00,   0.00, 1012.4,   84.3, -999.0
24-08-2022, 00:33:12,    214,    0.1,   17.2,   0.00,   0.00, 1012.4,   84.2, -999.0
24-08-2022, 00:33:22,    214,    0.0,   17.2,   0.00,   0.00, 1012.3,   84.2, -999.0
24-08-2022, 00:33:32,    214,    0.0,   17.1,   0.00,   0.00, 1012.3,   84.2, -999.0
24-08-2022, 00:33:42,    213,    0.0,   17.2,   0.00,   0.00, 1012.3,   84.3, -999.0
24-08-2022, 00:33:52,    213,    0.0,   17.2,   0.00,   0.00, 1012.3,   84.2, -999.0
24-08-2022, 00:34:02,    213,    0.1,   17.1,   0.00,   0.00, 1012.4,   84.5, -999.0
24-08-2022, 00:34:11,    195,    0.8,   17.3,   0.00,   0.00, 1012.4,   84.5, -999.0
24-08-2022, 00:34:22,    194,    0.4,   17.3,   0.00,   0.00, 1012.4,   84.5, -999.0
24-08-2022, 00:34:31,    180,    0.6,   17.2,   0.00,   0.00, 1012.4,   84.4, -999.0
24-08-2022, 00:34:41,    185,    0.9,   17.3,   0.00,   0.00, 1012.4,   84.5, -999.0
24-08-2022, 00:34:52,    186,    0.4,   17.3,   0.00,   0.00, 1012.4,   84.4, -999.0
24-08-2022, 00:35:01,    184,    0.0,   17.2,   0.00,   0.00, 1012.4,   84.4, -999.0
24-08-2022, 00:35:11,    185,    0.0,   17.3,   0.00,   0.00, 1012.3,   84.4, -999.0
24-08-2022, 00:35:21,    185,    0.0,   17.3,   0.00,   0.00, 1012.3,   84.2, -999.0
24-08-2022, 00:35:31,    185,    0.0,   17.2,   0.00,   0.00, 1012.3,   84.1, -999.0
24-08-2022, 00:35:41,    185,    0.0,   17.1,   0.00,   0.00, 1012.2,   84.1, -999.0
24-08-2022, 00:35:51,    187,    0.0,   17.2,   0.00,   0.00, 1012.3,   84.2, -999.0
24-08-2022, 00:36:01,    190,    0.0,   17.2,   0.00,   0.00, 1012.4,   84.4, -999.0
24-08-2022, 00:36:11,    191,    0.0,   17.3,   0.00,   0.00, 1012.3,   84.2, -999.0
24-08-2022, 00:36:21,    203,    1.2,   17.3,   0.00,   0.00, 1012.4,   84.5, -999.0
24-08-2022, 00:36:31,    204,    0.7,   17.3,   0.00,   0.00, 1012.4,   84.5, -999.0
24-08-2022, 00:36:41,    204,    0.0,   17.2,   0.00,   0.00, 1012.3,   84.2, -999.0
24-08-2022, 00:36:51,    203,    0.0,   17.3,   0.00,   0.00, 1012.3,   84.2, -999.0
24-08-2022, 00:37:01,    206,    0.6,   17.3,   0.00,   0.00, 1012.3,   84.2, -999.0
24-08-2022, 00:37:10,    206,    0.0,   17.2,   0.00,   0.00, 1012.2,   84.1, -999.0
24-08-2022, 00:37:21,    206,    0.0,   17.2,   0.00,   0.00, 1012.3,   83.9, -999.0
24-08-2022, 00:37:31,    210,    0.2,   17.3,   0.00,   0.00, 1012.3,   84.3, -999.0
24-08-2022, 00:37:40,    206,    0.0,   17.3,   0.00,   0.00, 1012.3,   84.2, -999.0
24-08-2022, 00:37:50,    222,    1.1,   17.3,   0.00,   0.00, 1012.4,   84.4, -999.0
24-08-2022, 00:38:01,    216,    1.5,   17.3,   0.00,   0.00, 1012.4,   84.4, -999.0
24-08-2022, 00:38:10,    215,    1.9,   17.4,   0.00,   0.00, 1012.4,   84.3, -999.0
24-08-2022, 00:38:20,    211,    1.3,   17.3,   0.00,   0.00, 1012.4,   84.4, -999.0
24-08-2022, 00:38:30,    214,    1.2,   17.3,   0.00,   0.00, 1012.3,   84.2, -999.0
24-08-2022, 00:38:40,    214,    0.1,   17.2,   0.00,   0.00, 1012.3,   84.0, -999.0
24-08-2022, 00:38:50,    214,    0.0,   17.2,   0.00,   0.00, 1012.2,   83.9, -999.0
24-08-2022, 00:39:00,    205,    1.3,   17.2,   0.00,   0.00, 1012.4,   84.1, -999.0
24-08-2022, 00:39:10,    201,    0.9,   17.3,   0.00,   0.00, 1012.3,   84.3, -999.0
24-08-2022, 00:39:20,    200,    0.7,   17.3,   0.00,   0.00, 1012.3,   84.5, -999.0
24-08-2022, 00:39:30,    209,    0.0,   17.2,   0.00,   0.00, 1012.2,   83.9, -999.0
24-08-2022, 00:39:40,    208,    0.0,   17.1,   0.00,   0.00, 1012.2,   84.0, -999.0
24-08-2022, 00:39:50,    208,    0.0,   17.2,   0.00,   0.00, 1012.2,   84.0, -999.0
24-08-2022, 00:40:00,    211,    0.0,   17.2,   0.00,   0.00, 1012.2,   84.1, -999.0
24-08-2022, 00:40:10,    205,    0.0,   17.2,   0.00,   0.00, 1012.2,   84.1, -999.0
24-08-2022, 00:40:19,    205,    0.0,   17.2,   0.00,   0.00, 1012.2,   84.1, -999.0
24-08-2022, 00:40:30,    204,    0.0,   17.2,   0.00,   0.00, 1012.2,   84.1, -999.0
24-08-2022, 00:40:39,    205,    0.0,   17.2,   0.00,   0.00, 1012.2,   84.1, -999.0
24-08-2022, 00:40:49,    203,    0.0,   17.2,   0.00,   0.00, 1012.2,   84.2, -999.0
24-08-2022, 00:40:59,    192,    0.0,   17.2,   0.00,   0.00, 1012.2,   84.2, -999.0
24-08-2022, 00:41:09,    191,    0.0,   17.2,   0.00,   0.00, 1012.2,   84.2, -999.0
24-08-2022, 00:41:19,    192,    0.0,   17.1,   0.00,   0.00, 1012.2,   84.2, -999.0
24-08-2022, 00:41:29,    192,    0.0,   17.3,   0.00,   0.00, 1012.2,   84.2, -999.0
24-08-2022, 00:41:39,    192,    0.0,   17.2,   0.00,   0.00, 1012.2,   84.3, -999.0
24-08-2022, 00:41:49,    192,    0.0,   17.3,   0.00,   0.00, 1012.2,   84.3, -999.0
24-08-2022, 00:41:59,    192,    0.0,   17.3,   0.00,   0.00, 1012.2,   84.2, -999.0
24-08-2022, 00:42:09,    192,    0.0,   17.2,   0.00,   0.00, 1012.2,   84.2, -999.0
24-08-2022, 00:42:19,    192,    0.0,   17.3,   0.00,   0.00, 1012.2,   84.2, -999.0
24-08-2022, 00:42:29,    192,    0.0,   17.3,   0.00,   0.00, 1012.2,   84.2, -999.0
24-08-2022, 00:42:39,    192,    0.0,   17.3,   0.00,   0.00, 1012.2,   84.2, -999.0
24-08-2022, 00:42:49,    192,    0.0,   17.3,   0.00,   0.00, 1012.2,   84.1, -999.0
24-08-2022, 00:42:59,    192,    0.0,   17.3,   0.00,   0.00, 1012.2,   84.0, -999.0
24-08-2022, 00:43:09,    192,    0.0,   17.3,   0.00,   0.00, 1012.2,   84.0, -999.0
24-08-2022, 00:43:18,    192,    0.0,   17.2,   0.00,   0.00, 1012.2,   84.0, -999.0
24-08-2022, 00:43:28,    192,    0.0,   17.2,   0.00,   0.00, 1012.2,   84.1, -999.0
24-08-2022, 00:43:39,    192,    0.0,   17.2,   0.00,   0.00, 1012.2,   84.1, -999.0
24-08-2022, 00:43:48,    192,    0.0,   17.3,   0.00,   0.00, 1012.2,   84.1, -999.0
24-08-2022, 00:43:58,    192,    0.0,   17.3,   0.00,   0.00, 1012.2,   84.2, -999.0
24-08-2022, 00:44:09,    199,    0.0,   17.3,   0.00,   0.00, 1012.2,   84.1, -999.0
24-08-2022, 00:44:18,    200,    0.0,   17.3,   0.00,   0.00, 1012.2,   84.0, -999.0
24-08-2022, 00:44:28,    199,    0.0,   17.3,   0.00,   0.00, 1012.2,   84.0, -999.0
24-08-2022, 00:44:38,    199,    0.0,   17.3,   0.00,   0.00, 1012.2,   83.9, -999.0
24-08-2022, 00:44:48,    199,    0.0,   17.3,   0.00,   0.00, 1012.2,   84.0, -999.0
24-08-2022, 00:44:58,    198,    0.0,   17.3,   0.00,   0.00, 1012.2,   84.0, -999.0
24-08-2022, 00:45:08,    198,    0.0,   17.3,   0.00,   0.00, 1012.2,   84.0, -999.0
24-08-2022, 00:45:18,    204,    0.0,   17.3,   0.00,   0.00, 1012.2,   84.1, -999.0
24-08-2022, 00:45:28,    203,    0.0,   17.3,   0.00,   0.00, 1012.2,   84.1, -999.0
24-08-2022, 00:45:38,    205,    0.0,   17.2,   0.00,   0.00, 1012.2,   83.8, -999.0
24-08-2022, 00:45:48,    230,    1.6,   17.4,   0.00,   0.00, 1012.3,   84.3, -999.0
24-08-2022, 00:45:57,    211,    1.7,   17.4,   0.00,   0.00, 1012.3,   84.2, -999.0
24-08-2022, 00:46:08,    243,    2.1,   17.4,   0.00,   0.00, 1012.3,   84.2, -999.0
24-08-2022, 00:46:18,    254,    1.7,   17.4,   0.00,   0.00, 1012.3,   84.2, -999.0
24-08-2022, 00:46:27,    234,    1.0,   17.4,   0.00,   0.00, 1012.3,   84.1, -999.0
24-08-2022, 00:46:38,    231,    0.5,   17.3,   0.00,   0.00, 1012.3,   84.1, -999.0